Location: Congrier
(47.8099°N, 1.1170°W)
Time: 19:24:43
(UTC+00:00)

Cosmos 2263 Rocket - Pass Details

Date: 28 January 2023
Orbit: 825 x 847 km, 71.0° (Epoch: 26 March)

Event Time Altitude Azimuth Distance (km) Brightness Sun altitude
Rises 18:50:28 0° 329° (NNW) 3,376 5.7 -18.8°
Reaches altitude 10° 18:52:57 10° 325° (NW) 2,437 5.0 -19.2°
Maximum altitude 18:58:22 54° 249° (WSW) 994 2.9 -20.1°
Drops below altitude 10° 19:03:44 10° 173° (S) 2,419 4.5 -21.0°
Sets 19:06:12 0° 169° (S) 3,349 5.2 -21.4°
